Regional Weather Roundup
Issued by NWS

Home | Current Version | Previous Version | Graphics & Text | Print | Product List | Glossary On
Versions: 1 2 3 4 5 6 7 8 9 10 11 12 13 14 15 16 17 18 19 20 21 22 23 24 25 26 27 28 29 30 31 32 33 34 35 36 37 38 39 40 41 42 43 44 45 46 47 48 49 50
000
ASUS43 KFSD 220410
RWRSD

WEATHER ROUNDUP FOR SOUTH DAKOTA
NATIONAL WEATHER SERVICE SIOUX FALLS SD
1100 PM CDT FRI JUL 21 2017

NOTE: "FAIR" INDICATES FEW OR NO CLOUDS BELOW 12,000 FEET WITH NO
SIGNIFICANT WEATHER AND/OR OBSTRUCTIONS TO VISIBILITY.


SDZ001>005-009-010-012>017-220500-
NORTHWEST AND NORTH CENTRAL SOUTH DAKOTA

CITY           SKY/WX    TMP DP  RH WIND       PRES   REMARKS
BUFFALO          N/A     76  39  26 N8        29.89R
FAITH            N/A     74  50  42 NW10      29.90R
MOBRIDGE       CLEAR     75  67  76 E10       29.79R
$$

SDZ012>016-024>037-041>051-057-063-072>074-220500-
SOUTHWEST AND SOUTH CENTRAL SOUTH DAKOTA

CITY           SKY/WX    TMP DP  RH WIND       PRES   REMARKS
RAPID CTY ARPT PTCLDY    72  46  39 N14       29.95R
PIERRE         PTCLDY    83  66  56 N12       29.77R
CUSTER         CLOUDY    70  41  34 VRB5      30.14R
ELLSWORTH AFB  PTCLDY    77  42  29 NW10      29.96R
PHILIP         CLOUDY    79  57  46 NW9       29.86R
PINE RIDGE     PTCLDY    72  62  71 NE5       29.97R
SPEARFISH      FAIR      70  41  35 SW8       30.04R
WINNER         FAIR      87  70  56 S13G21    29.81R
$$

SDZ004>011-016>023-039-040-220500-
NORTHEAST SOUTH DAKOTA

CITY           SKY/WX    TMP DP  RH WIND       PRES   REMARKS
ABERDEEN       TSTM      72  65  78 SE12G25   29.78F
WATERTOWN      CLOUDY    77  73  87 SE8       29.79F
BROOKINGS      CLEAR     76  72  87 E7        29.79F
SISSETON         N/A     76  73  91 E6        29.80R
$$

SDZ017-020-022-023-036>040-048>070-220500-
SOUTHEAST SOUTH DAKOTA

CITY           SKY/WX    TMP DP  RH WIND       PRES   REMARKS
SIOUX FALLS    MOCLDY    77  76  96 E8        29.78S
HURON          PTCLDY    79  74  84 E8        29.77R
CHAMBERLAIN    CLEAR     83  78  85 SE9       29.75F
MITCHELL       CLEAR     77  75  93 SE8       29.74F
YANKTON        CLOUDY    79  76  90 NE6       29.75S
$$

ABBREVIATIONS USED IN REMARKS
   TC - TEMPERATURE IN CELSIUS
  WCI - WIND CHILL INDEX
   HX - HEAT INDEX
  VSB - VISIBILITY




USA.gov is the U.S. government's official web portal to all federal, state and local government web resources and services.